| time (UTC) | temp F | wind direction | speed MPH | gust MPH | rain 1hr in | rain 24hr in | rain mn in | humidity % | barometer mb |
| 20260902230435 | 73 | 281 | 3.0 | 5.0 | 0.00 | 0.00 | 0.00 | 70 | 1018.3 |
| 20260902230314 | 74 | 289 | 3.0 | 4.0 | 0.00 | 0.00 | 0.00 | 70 | 1018.4 |
| 20260902224436 | 74 | 250 | 1.0 | 3.0 | 0.00 | 0.00 | 0.00 | 70 | 1018.3 |
| 20260902223434 | 74 | 295 | 1.0 | 3.0 | 0.00 | 0.00 | 0.00 | 69 | 1018.4 |
| 20260902222436 | 74 | 279 | 1.0 | 3.0 | 0.00 | 0.00 | 0.00 | 69 | 1018.5 |
| 20260902221436 | 75 | 338 | 0.0 | 2.0 | 0.00 | 0.00 | 0.00 | 68 | 1018.5 |
| 20260902220434 | 74 | 330 | 2.0 | 4.0 | 0.00 | 0.00 | 0.00 | 69 | 1018.5 |
| 20260902220314 | 74 | 323 | 2.0 | 4.0 | 0.00 | 0.00 | 0.00 | 69 | 1018.3 |
| 20260902214434 | 74 | 283 | 3.0 | 4.0 | 0.00 | 0.00 | 0.00 | 69 | 1018.4 |
| 20260902213431 | 74 | 272 | 3.0 | 5.0 | 0.00 | 0.00 | 0.00 | 69 | 1018.3 |
| 20260902212431 | 74 | 292 | 4.0 | 5.0 | 0.00 | 0.00 | 0.00 | 69 | 1018.2 |
| 20260902212207 | 74 | 281 | 2.0 | 4.0 | 0.00 | 0.00 | 0.00 | 69 | 1018.2 |
| 20260902211205 | 74 | 289 | 3.0 | 4.0 | 0.00 | 0.00 | 0.00 | 69 | 1018.2 |
| 20260902210311 | 74 | 295 | 2.0 | 4.0 | 0.00 | 0.00 | 0.00 | 69 | 1018.1 |
| 20260902204434 | 75 | 279 | 2.0 | 5.0 | 0.00 | 0.00 | 0.00 | 68 | 1018.1 |
| 20260902203435 | 75 | 272 | 2.0 | 3.0 | 0.00 | 0.00 | 0.00 | 68 | 1018.0 |
| 20260902202434 | 75 | 272 | 2.0 | 3.0 | 0.00 | 0.00 | 0.00 | 69 | 1018.0 |
| 20260902201431 | 75 | 281 | 2.0 | 3.0 | 0.00 | 0.00 | 0.00 | 69 | 1018.0 |
| 20260902200431 | 75 | 281 | 2.0 | 4.0 | 0.00 | 0.00 | 0.00 | 68 | 1018.0 |
| 20260902195433 | 75 | 300 | 2.0 | 2.0 | 0.00 | 0.00 | 0.00 | 69 | 1018.2 |
| 20260902194433 | 75 | 10 | 0.0 | 2.0 | 0.00 | 0.00 | 0.00 | 69 | 1018.2 |
| 20260902193428 | 75 | 10 | 1.0 | 2.0 | 0.00 | 0.00 | 0.00 | 69 | 1018.1 |
| 20260902192430 | 76 | 10 | 1.0 | 2.0 | 0.00 | 0.00 | 0.00 | 69 | 1018.2 |
| 20260902191430 | 76 | 10 | 0.0 | 2.0 | 0.00 | 0.00 | 0.00 | 69 | 1018.2 |
| 20260902191157 | 77 | 10 | 0.0 | 2.0 | 0.00 | 0.00 | 0.00 | 68 | 1018.3 |
| 20260902185430 | 77 | 10 | 0.0 | 1.0 | 0.00 | 0.00 | 0.00 | 69 | 1018.2 |
| 20260902185135 | 77 | 10 | 0.0 | 2.0 | 0.00 | 0.00 | 0.00 | 69 | 1018.1 |
| 20260902183427 | 77 | 10 | 2.0 | 4.0 | 0.00 | 0.00 | 0.00 | 68 | 1018.1 |
| 20260902182832 | 78 | 59 | 2.0 | 2.0 | 0.00 | 0.00 | 0.00 | 67 | 1017.8 |
| 20260902182532 | 77 | 27 | 2.0 | 3.0 | 0.00 | 0.00 | 0.00 | 67 | 1017.9 |
| 20260902180433 | 78 | 59 | 1.0 | 2.0 | 0.00 | 0.00 | 0.00 | 67 | 1017.7 |
| 20260902175429 | 78 | 59 | 2.0 | 3.0 | 0.00 | 0.00 | 0.00 | 66 | 1017.7 |
| 20260902174428 | 79 | 59 | 2.0 | 3.0 | 0.00 | 0.00 | 0.00 | 65 | 1017.6 |
| 20260902174052 | 79 | 75 | 2.0 | 4.0 | 0.00 | 0.00 | 0.00 | 62 | 1017.4 |
| 20260902173954 | 80 | 69 | 2.0 | 5.0 | 0.00 | 0.00 | 0.00 | 60 | 1017.4 |
| 20260902173943 | 79 | 59 | 2.0 | 5.0 | 0.00 | 0.00 | 0.00 | 62 | 1017.2 |
| 20260902173606 | 79 | 59 | 1.0 | 3.0 | 0.00 | 0.00 | 0.00 | 63 | 1017.5 |
| 20260902165428 | 80 | 87 | 3.0 | 5.0 | 0.00 | 0.00 | 0.00 | 59 | 1017.4 |
| 20260902164845 | 81 | 51 | 3.0 | 6.0 | 0.00 | 0.00 | 0.00 | 57 | 1017.7 |
| 20260902164543 | 80 | 80 | 3.0 | 5.0 | 0.00 | 0.00 | 0.00 | 58 | 1017.6 |
| 20260902163200 | 81 | 25 | 4.0 | 6.0 | 0.00 | 0.00 | 0.00 | 57 | 1017.7 |
| 20260902161428 | 81 | 49 | 3.0 | 5.0 | 0.00 | 0.00 | 0.00 | 56 | 1017.8 |
| 20260902161219 | 82 | 7 | 2.0 | 5.0 | 0.00 | 0.00 | 0.00 | 56 | 1017.7 |
| 20260902155423 | 82 | 90 | 3.0 | 7.0 | 0.00 | 0.00 | 0.00 | 56 | 1017.7 |
| 20260902154424 | 83 | 18 | 4.0 | 9.0 | 0.00 | 0.00 | 0.00 | 55 | 1017.6 |
| 20260902153426 | 82 | 58 | 4.0 | 7.0 | 0.00 | 0.00 | 0.00 | 54 | 1017.5 |
| 20260902152430 | 82 | 35 | 4.0 | 10.0 | 0.00 | 0.00 | 0.00 | 54 | 1017.3 |
| 20260902152218 | 82 | 51 | 7.0 | 12.0 | 0.00 | 0.00 | 0.00 | 53 | 1017.3 |
| 20260902150427 | 83 | 353 | 6.0 | 12.0 | 0.00 | 0.00 | 0.00 | 54 | 1017.2 |
| 20260902145425 | 83 | 71 | 5.0 | 14.0 | 0.00 | 0.00 | 0.00 | 55 | 1017.2 |
| 20260902144427 | 84 | 0 | 5.0 | 13.0 | 0.00 | 0.00 | 0.00 | 55 | 1017.3 |
| 20260902143422 | 84 | 18 | 5.0 | 14.0 | 0.00 | 0.00 | 0.00 | 54 | 1017.3 |
| 20260902142857 | 84 | 25 | 8.0 | 14.0 | 0.00 | 0.00 | 0.00 | 55 | 1017.6 |
| 20260902142547 | 84 | 38 | 9.0 | 13.0 | 0.00 | 0.00 | 0.00 | 55 | 1017.6 |
| 20260902141226 | 84 | 80 | 8.0 | 14.0 | 0.00 | 0.00 | 0.00 | 56 | 1017.6 |
| 20260902135427 | 85 | 20 | 8.0 | 15.0 | 0.00 | 0.00 | 0.00 | 56 | 1017.7 |
| 20260902134424 | 85 | 100 | 8.0 | 14.0 | 0.00 | 0.00 | 0.00 | 57 | 1017.7 |
| 20260902133425 | 85 | 35 | 7.0 | 13.0 | 0.00 | 0.00 | 0.00 | 59 | 1017.8 |
| 20260902132421 | 85 | 54 | 6.0 | 17.0 | 0.00 | 0.00 | 0.00 | 58 | 1018.0 |
| 20260902131422 | 85 | 31 | 8.0 | 15.0 | 0.00 | 0.00 | 0.00 | 58 | 1018.0 |
| 20260902130421 | 85 | 62 | 7.0 | 17.0 | 0.00 | 0.00 | 0.00 | 59 | 1018.0 |
| 20260902125420 | 85 | 99 | 6.0 | 16.0 | 0.00 | 0.00 | 0.00 | 59 | 1018.1 |
| 20260902124424 | 85 | 56 | 9.0 | 18.0 | 0.00 | 0.00 | 0.00 | 59 | 1018.2 |
| 20260902124158 | 86 | 358 | 8.0 | 16.0 | 0.00 | 0.00 | 0.00 | 57 | 1018.2 |
| 20260902122422 | 85 | 48 | 9.0 | 16.0 | 0.00 | 0.00 | 0.00 | 57 | 1018.4 |
| 20260902121423 | 86 | 309 | 9.0 | 16.0 | 0.00 | 0.00 | 0.00 | 57 | 1018.4 |
| 20260902120422 | 86 | 63 | 10.0 | 15.0 | 0.00 | 0.00 | 0.00 | 57 | 1018.4 |
| 20260902115422 | 85 | 66 | 9.0 | 17.0 | 0.00 | 0.00 | 0.00 | 57 | 1018.4 |
| 20260902115156 | 87 | 47 | 8.0 | 15.0 | 0.00 | 0.00 | 0.00 | 54 | 1018.4 |
| 20260902113421 | 89 | 10 | 4.0 | 12.0 | 0.00 | 0.00 | 0.00 | 52 | 1018.6 |
| 20260902112420 | 89 | 8 | 4.0 | 7.0 | 0.00 | 0.00 | 0.00 | 47 | 1018.7 |
| 20260902111421 | 89 | 305 | 3.0 | 10.0 | 0.00 | 0.00 | 0.00 | 47 | 1018.8 |
| 20260902111145 | 87 | 353 | 2.0 | 4.0 | 0.00 | 0.00 | 0.00 | 52 | 1018.8 |
| 20260902105420 | 87 | 72 | 3.0 | 5.0 | 0.00 | 0.00 | 0.00 | 51 | 1018.9 |
| 20260902104418 | 86 | 338 | 2.0 | 5.0 | 0.00 | 0.00 | 0.00 | 51 | 1019.1 |
| 20260902103419 | 86 | 345 | 4.0 | 7.0 | 0.00 | 0.00 | 0.00 | 53 | 1019.1 |
| 20260902102420 | 87 | 14 | 4.0 | 9.0 | 0.00 | 0.00 | 0.00 | 53 | 1019.2 |
| 20260902101419 | 86 | 4 | 1.0 | 7.0 | 0.00 | 0.00 | 0.00 | 54 | 1019.2 |
| 20260902100416 | 87 | 18 | 3.0 | 5.0 | 0.00 | 0.00 | 0.00 | 54 | 1019.4 |
| 20260902095422 | 86 | 295 | 4.0 | 10.0 | 0.00 | 0.00 | 0.00 | 54 | 1019.5 |
| 20260902094417 | 86 | 320 | 3.0 | 6.0 | 0.00 | 0.00 | 0.00 | 56 | 1019.5 |
| 20260902093418 | 85 | 312 | 3.0 | 10.0 | 0.00 | 0.00 | 0.00 | 57 | 1019.5 |
| 20260902092414 | 85 | 72 | 5.0 | 9.0 | 0.00 | 0.00 | 0.00 | 58 | 1019.4 |
| 20260902091418 | 84 | 0 | 4.0 | 6.0 | 0.00 | 0.00 | 0.00 | 59 | 1019.4 |
| 20260902090415 | 84 | 330 | 2.0 | 5.0 | 0.00 | 0.00 | 0.00 | 60 | 1019.3 |
| 20260902090308 | 83 | 300 | 2.0 | 7.0 | 0.00 | 0.00 | 0.00 | 62 | 1019.3 |
| 20260902084419 | 83 | 317 | 2.0 | 5.0 | 0.00 | 0.00 | 0.00 | 63 | 1019.3 |
| 20260902083415 | 82 | 296 | 4.0 | 6.0 | 0.00 | 0.00 | 0.00 | 65 | 1019.2 |
| 20260902082920 | 80 | 336 | 4.0 | 7.0 | 0.00 | 0.00 | 0.00 | 68 | 1019.1 |
| 20260902082546 | 81 | 316 | 4.0 | 6.0 | 0.00 | 0.00 | 0.00 | 68 | 1019.2 |
| 20260902080416 | 80 | 321 | 4.0 | 6.0 | 0.00 | 0.00 | 0.00 | 69 | 1018.9 |
| 20260902075412 | 80 | 0 | 3.0 | 7.0 | 0.00 | 0.00 | 0.00 | 68 | 1019.1 |
| 20260902074414 | 80 | 313 | 4.0 | 9.0 | 0.00 | 0.00 | 0.00 | 67 | 1019.1 |
| 20260902073413 | 79 | 310 | 3.0 | 9.0 | 0.00 | 0.00 | 0.00 | 63 | 1019.0 |
| 20260902072414 | 79 | 290 | 2.0 | 7.0 | 0.00 | 0.00 | 0.00 | 59 | 1018.8 |
| 20260902071413 | 78 | 302 | 4.0 | 10.0 | 0.00 | 0.00 | 0.00 | 56 | 1018.9 |
| 20260902070414 | 77 | 274 | 4.0 | 6.0 | 0.00 | 0.00 | 0.00 | 58 | 1018.8 |
| 20260902065412 | 76 | 293 | 5.0 | 9.0 | 0.00 | 0.00 | 0.00 | 58 | 1018.8 |
| 20260902065225 | 76 | 289 | 2.0 | 5.0 | 0.00 | 0.00 | 0.00 | 57 | 1018.8 |
| 20260902064141 | 75 | 282 | 3.0 | 6.0 | 0.00 | 0.00 | 0.00 | 58 | 1018.8 |
| 20260902062411 | 74 | 293 | 2.0 | 5.0 | 0.00 | 0.00 | 0.00 | 58 | 1018.8 |
| 20260902061412 | 74 | 289 | 3.0 | 9.0 | 0.00 | 0.00 | 0.00 | 59 | 1018.7 |
| 20260902060635 | 73 | 289 | 3.0 | 4.0 | 0.00 | 0.00 | 0.00 | 56 | 1018.6 |
| 20260902060622 | 73 | 285 | 3.0 | 4.0 | 0.00 | 0.00 | 0.00 | 57 | 1018.6 |
| 20260902060437 | 73 | 295 | 1.0 | 3.0 | 0.00 | 0.00 | 0.00 | 58 | 1018.7 |
| 20260902054158 | 74 | 279 | 3.0 | 6.0 | 0.00 | 0.00 | 0.00 | 54 | 1018.7 |
| 20260902052415 | 74 | 286 | 4.0 | 9.0 | 0.00 | 0.00 | 0.00 | 53 | 1018.7 |
| 20260902051412 | 74 | 292 | 4.0 | 7.0 | 0.00 | 0.00 | 0.00 | 52 | 1018.4 |
| 20260902050408 | 74 | 309 | 5.0 | 6.0 | 0.00 | 0.00 | 0.00 | 51 | 1018.4 |
| 20260902050325 | 74 | 306 | 6.0 | 7.0 | 0.00 | 0.00 | 0.00 | 51 | 1018.3 |
| 20260902044412 | 74 | 298 | 6.0 | 9.0 | 0.00 | 0.00 | 0.00 | 51 | 1018.3 |
| 20260902043407 | 73 | 259 | 6.0 | 9.0 | 0.00 | 0.00 | 0.00 | 53 | 1018.2 |
| 20260902042412 | 73 | 290 | 6.0 | 9.0 | 0.00 | 0.00 | 0.00 | 55 | 1018.2 |
| 20260902041411 | 73 | 281 | 4.0 | 5.0 | 0.00 | 0.00 | 0.00 | 56 | 1018.1 |
| 20260902040410 | 73 | 289 | 4.0 | 6.0 | 0.00 | 0.00 | 0.00 | 56 | 1017.9 |
| 20260902035410 | 73 | 289 | 5.0 | 9.0 | 0.00 | 0.00 | 0.00 | 55 | 1018.0 |
| 20260902034408 | 73 | 303 | 5.0 | 7.0 | 0.00 | 0.00 | 0.00 | 55 | 1017.9 |
| 20260902033409 | 73 | 289 | 5.0 | 6.0 | 0.00 | 0.00 | 0.00 | 55 | 1017.9 |
| 20260902032411 | 74 | 298 | 5.0 | 5.0 | 0.00 | 0.00 | 0.00 | 55 | 1017.9 |
| 20260902031412 | 74 | 290 | 4.0 | 5.0 | 0.00 | 0.00 | 0.00 | 54 | 1018.1 |
| 20260902030406 | 74 | 271 | 4.0 | 6.0 | 0.00 | 0.00 | 0.00 | 54 | 1018.1 |
| 20260902030257 | 74 | 285 | 4.0 | 6.0 | 0.00 | 0.00 | 0.00 | 53 | 1018.0 |
| 20260902025140 | 74 | 285 | 5.0 | 6.0 | 0.00 | 0.00 | 0.00 | 54 | 1018.1 |
| 20260902023407 | 74 | 288 | 5.0 | 9.0 | 0.00 | 0.00 | 0.00 | 54 | 1018.1 |
| 20260902022825 | 75 | 286 | 4.0 | 9.0 | 0.00 | 0.00 | 0.00 | 55 | 1018.1 |
| 20260902022519 | 74 | 281 | 6.0 | 10.0 | 0.00 | 0.00 | 0.00 | 55 | 1018.2 |
| 20260902020406 | 75 | 285 | 5.0 | 7.0 | 0.00 | 0.00 | 0.00 | 55 | 1018.2 |
| 20260902015406 | 75 | 290 | 5.0 | 10.0 | 0.00 | 0.00 | 0.00 | 56 | 1018.0 |
| 20260902014407 | 76 | 302 | 6.0 | 12.0 | 0.00 | 0.00 | 0.00 | 54 | 1018.1 |
| 20260902013406 | 75 | 283 | 6.0 | 10.0 | 0.00 | 0.00 | 0.00 | 54 | 1018.1 |
| 20260902012404 | 74 | 302 | 6.0 | 9.0 | 0.00 | 0.00 | 0.00 | 55 | 1018.0 |
| 20260902011405 | 74 | 317 | 4.0 | 6.0 | 0.00 | 0.00 | 0.00 | 56 | 1018.0 |
| 20260902010403 | 75 | 289 | 2.0 | 4.0 | 0.00 | 0.00 | 0.00 | 56 | 1017.9 |
| 20260902005403 | 74 | 288 | 4.0 | 5.0 | 0.00 | 0.00 | 0.00 | 58 | 1018.0 |
| 20260902004407 | 74 | 238 | 2.0 | 3.0 | 0.00 | 0.00 | 0.00 | 57 | 1017.9 |
| 20260902003404 | 74 | 228 | 2.0 | 4.0 | 0.00 | 0.00 | 0.00 | 57 | 1018.0 |
| 20260902002403 | 74 | 219 | 3.0 | 6.0 | 0.00 | 0.00 | 0.00 | 58 | 1018.0 |
| 20260902002147 | 74 | 285 | 2.0 | 3.0 | 0.00 | 0.00 | 0.00 | 58 | 1018.1 |
| 20260902000406 | 75 | 283 | 2.0 | 4.0 | 0.00 | 0.00 | 0.00 | 58 | 1018.2 |
| 20260901235404 | 74 | 283 | 3.0 | 4.0 | 0.00 | 0.00 | 0.00 | 58 | 1018.2 |
| 20260901234402 | 74 | 266 | 3.0 | 4.0 | 0.00 | 0.00 | 0.00 | 59 | 1018.2 |
| 20260901233401 | 74 | 264 | 2.0 | 3.0 | 0.00 | 0.00 | 0.00 | 61 | 1018.2 |
| 20260901232400 | 74 | 258 | 1.0 | 3.0 | 0.00 | 0.00 | 0.00 | 67 | 1018.3 |
| 20260901232132 | 74 | 262 | 2.0 | 4.0 | 0.00 | 0.00 | 0.00 | 68 | 1018.2 |